Hourly Data Report for October 18, 2015

All times are specified in Local Standard Time (LST). Add 1 hour to adjust for Daylight Saving Time where and when it is observed.

CHARLOTTETOWN A
PRINCE EDWARD ISLAND

46°17'21.000" N
63°07'09.000" W
48.50 m
8300301
71706
YYG

Download Data

Hourly Data (October 2015)
Hourly Data Report for October 18, 2015
Temp Definition
°C
Dew Point Temp Definition
°C
Rel Hum Definition
%
Wind Dir Definition
10's deg

Wind Spd Definition
km/h
Visibility Definition
km
Stn Press Definition
kPa
Hmdx Definition


Wind Chill Definition


Weather Definition


TIME
00:00 Legend Double Dagger 6.5 5.0 90 22 18 24.1 100.37     LegendNANA
01:00 Legend Double Dagger 5.8 4.1 89 24 14 24.1 100.36     LegendNANA
02:00 Legend Double Dagger 4.2 3.3 94 27 13 24.1 100.39     Mostly Cloudy
03:00 Legend Double Dagger 3.9 2.9 93 30 13 24.1 100.39     LegendNANA
04:00 Legend Double Dagger 4.1 2.8 91 27 13 24.1 100.43     LegendNANA
05:00 Legend Double Dagger 3.8 2.8 93 29 14 24.1 100.45     Mostly Cloudy
06:00 Legend Double Dagger 3.7 3.0 95 29 10 19.3 100.50     Rain Showers
07:00 Legend Double Dagger 3.5 2.9 96 31 4 16.1 100.56     Rain Showers
08:00 Legend Double Dagger 2.9 1.9 93 30 16 12.9 100.63     Rain Showers
09:00 Legend Double Dagger 4.6 2.1 84 28 13 24.1 100.67     LegendNANA
10:00 Legend Double Dagger 4.9 0.7 74 29 23 24.1 100.70     LegendNANA
11:00 Legend Double Dagger 5.4 0.2 69 30 16 24.1 100.72     Mostly Cloudy
12:00 Legend Double Dagger 6.1 -1.8 57 31 19 24.1 100.73     LegendNANA
13:00 Legend Double Dagger 6.0 -1.4 59 30 20 24.1 100.73     LegendNANA
14:00 Legend Double Dagger 5.0 -2.6 58 29 16 24.1 100.74     Mostly Cloudy
15:00 Legend Double Dagger 5.5 -3.6 52 30 20 24.1 100.79     LegendNANA
16:00 Legend Double Dagger 4.2 -3.3 58 28 18 24.1 100.84     LegendNANA
17:00 Legend Double Dagger 3.1 -3.1 64 29 12 24.1 100.86     Mostly Cloudy
18:00 Legend Double Dagger 1.5 -2.8 73 28 16 24.1 100.94     LegendNANA
19:00 Legend Double Dagger 0.6 -2.6 79 29 12 24.1 100.97     LegendNANA
20:00 Legend Double Dagger 1.0 -3.1 74 28 11 24.1 100.97     Mainly Clear
21:00 Legend Double Dagger 0.4 -3.9 73 28 11 24.1 100.95     LegendNANA
22:00 Legend Double Dagger 0.4 -3.9 73 28 14 24.1 100.94     LegendNANA
23:00 Legend Double Dagger 0.1 -3.3 78 27 13 24.1 100.94     Mainly Clear

Notes on Data Quality.

Legend

  • E = Estimated
  • M = Missing
  • NA = Not Available
  • ‡ = Partner data that is not subject to review by the National Climate Archives
Date modified: